Big Delta, AK

3:11 PM AKST on November 21, 2017 (GMT -0900)
Allen Army Air Field

Weather History for PABI - May, 2014

Change the Weather History Date:

Sunday, May 18, 2014

  Actual Average Record
Temperature  
Mean Temperature 42 °F -  
Max Temperature 48 °F 55 °F 75 °F (2015)
Min Temperature 37 °F 35 °F 19 °F (2013)
Degree Days  
Heating Degree Days 22    
Moisture  
Dew Point 28 °F    
Average Humidity 57    
Maximum Humidity 80    
Minimum Humidity 23    
Precipitation  
Precipitation 0.00 in - - ()
Sea Level Pressure  
Sea Level Pressure 29.97 in    
Wind  
Wind Speed 12 mph (NW)    
Max Wind Speed 17 mph    
Max Gust Speed 26 mph    
Visibility 10 miles    
Events      
Averages and records for this station are not official NWS values.
T = Trace of Precipitation, MM = Missing Value Source: NWS Daily Summary

Daily Weather History Graph

Daily Weather History Graph

Search for Another Location

Airport or City:

Trip Planner

Search our weather history database for the weather conditions in past years. The results will help you decide how hot, cold, wet, or windy it might be!

Date:

Astronomy

May. 18, 2014 Rise Set
Actual Time 4:19 AM AKDT 11:01 PM AKDT
Civil Twilight 2:22 AM AKDT 1:07 AM AKDT
Nautical Twilight Sun does not rise Sun does not rise
Astronomical Twilight Sun does not rise Sun does not rise
Moon 1:45 AM AKDT (5/18) 8:44 AM AKDT (5/18)
Length of Visible Light 22h 44m
Length of Day
18h 41m
Waning Gibbous, 79% of the Moon is Illuminated
May 18
Waning Gibbous
May 21
Last Quarter
May 28
New
Jun 5
First Quarter
Jun 12
Full

Hourly Weather History & Observations

Time (AKDT) Temp. Windchill Dew Point Humidity Pressure Visibility Wind Dir Wind Speed Gust Speed Precip Events Conditions
12:53 AM 43.0 °F 35.7 °F 37.0 °F 80% 29.96 in 10.0 mi WNW 15.0 mph 21.9 mph N/A   Overcast
1:01 AM 43.0 °F 35.1 °F 35.1 °F 74% 29.94 in 10.0 mi WNW 17.3 mph 24.2 mph N/A   Overcast
1:53 AM 41.0 °F 34.7 °F 35.1 °F 79% 29.97 in 10.0 mi NW 10.4 mph - N/A   Overcast
2:53 AM 39.9 °F 35.1 °F 34.0 °F 79% 29.98 in 10.0 mi WNW 6.9 mph - N/A   Overcast
3:53 AM 39.0 °F 31.8 °F 33.1 °F 79% 29.99 in 10.0 mi WNW 11.5 mph - N/A   Partly Cloudy
4:53 AM 39.0 °F 35.7 °F 33.1 °F 79% 29.99 in 10.0 mi SW 4.6 mph - N/A   Mostly Cloudy
5:53 AM 39.0 °F 33.4 °F 33.1 °F 79% 29.99 in 10.0 mi WNW 8.1 mph - N/A   Mostly Cloudy
6:53 AM 39.0 °F 33.4 °F 33.1 °F 79% 29.98 in 10.0 mi WNW 8.1 mph - N/A   Mostly Cloudy
7:53 AM 39.9 °F 32.9 °F 30.9 °F 70% 29.98 in 10.0 mi NW 11.5 mph - N/A   Mostly Cloudy
8:53 AM 37.9 °F 30.9 °F 30.9 °F 76% 29.99 in 10.0 mi NNW 10.4 mph - N/A   Mostly Cloudy
9:53 AM 39.9 °F 32.9 °F 30.9 °F 70% 29.98 in 10.0 mi WNW 11.5 mph - N/A   Overcast
10:53 AM 41.0 °F 35.8 °F 28.9 °F 62% 29.98 in 10.0 mi NW 8.1 mph - N/A   Mostly Cloudy
11:53 AM 43.0 °F 36.0 °F 28.0 °F 56% 29.96 in 10.0 mi NW 13.8 mph - N/A   Mostly Cloudy
12:53 PM 45.0 °F 38.5 °F 25.0 °F 46% 29.95 in 10.0 mi NNW 13.8 mph 20.7 mph N/A   Scattered Clouds
1:53 PM 46.0 °F 39.3 °F 23.0 °F 40% 29.94 in 10.0 mi NW 16.1 mph 26.5 mph N/A   Scattered Clouds
2:53 PM 46.9 °F - 19.9 °F 34% 29.94 in 10.0 mi NNW 16.1 mph 24.2 mph N/A   Mostly Cloudy
3:53 PM 46.9 °F - 21.0 °F 36% 29.94 in 10.0 mi NW 16.1 mph - N/A   Mostly Cloudy
4:53 PM 46.9 °F - 21.9 °F 37% 29.94 in 10.0 mi NW 16.1 mph 20.7 mph N/A   Overcast
5:53 PM 46.0 °F 40.2 °F 21.9 °F 39% 29.93 in 10.0 mi WNW 12.7 mph - N/A   Overcast
6:53 PM 46.0 °F 39.3 °F 21.9 °F 39% 29.94 in 10.0 mi WNW 16.1 mph - N/A   Overcast
7:53 PM 44.1 °F 37.1 °F 23.0 °F 43% 29.96 in 10.0 mi WNW 15.0 mph 21.9 mph N/A   Overcast
8:53 PM 43.0 °F 36.4 °F 23.0 °F 45% 29.97 in 10.0 mi WNW 12.7 mph 19.6 mph N/A   Overcast
9:53 PM 42.1 °F 35.2 °F 24.1 °F 49% 29.97 in 10.0 mi NW 12.7 mph - N/A   Overcast
10:53 PM 41.0 °F 35.2 °F 25.0 °F 53% 29.98 in 10.0 mi WNW 9.2 mph - N/A   Overcast
11:53 PM 41.0 °F 37.1 °F 25.0 °F 53% 29.99 in 10.0 mi WNW 5.8 mph - N/A   Overcast